Regional Weather Roundup
Issued by NWS Northern Indiana

Home | Current Version | Previous Version | Text Only | Print | Product List | Glossary On
Versions: 1 2 3 4 5 6 7 8 9 10 11 12 13 14 15 16 17 18 19 20 21 22 23 24 25 26 27 28 29 30 31 32 33 34 35 36 37 38 39 40 41 42 43 44 45 46 47 48 49 50
000
ASUS43 KIWX 020710
RWRIWX

KIWX WEATHER ROUNDUP
NATIONAL WEATHER SERVICE NORTHERN INDIANA
200 AM EST MON MAR 02 2015

NOTE: "FAIR" INDICATES FEW OR NO CLOUDS BELOW 12,000 FEET WITH NO
SIGNIFICANT WEATHER AND/OR OBSTRUCTIONS TO VISIBILITY.

* THESE STATIONS ARE NOT UNDER NWS QUALITY CONTROL. THEY ALSO MAY NOT
  REPORT WEATHER SUCH AS PRECIPITATION OR FOG.

INZ001>027-020800-
NORTHERN INDIANA

CITY           SKY/WX    TMP DP  RH WIND       PRES   REMARKS
GARY*          PTCLDY    19   8  62 W12       30.40R WCI   6
VALPARAISO     CLEAR     15  10  80 W10       30.37R WCI   2
MICHIGAN CITY* FAIR      21   9  58 W7        30.38R WCI  13
LAPORTE*       CLEAR     20  14  78 NW9       30.36R WCI   9
KNOX*            N/A     12   3  67 W9        30.37R WCI   0
SOUTH BEND     PTCLDY    14  10  84 W8        30.35R WCI   3
GOSHEN         CLOUDY    18  13  80 W14       30.33R WCI   4
MONTICELLO*    FAIR      15  11  85 W9        30.39R WCI   3
LOGANSPORT*    PTCLDY    10   7  85 W8        30.39R WCI  -1
ROCHESTER*     CLEAR     18  14  86 W6        30.36R WCI   9
WARSAW*        CLEAR     14  12  92 W7        30.34R WCI   4
ANGOLA*        CLOUDY    19  16  86 W8        30.29R WCI   9
FORT WAYNE     PTCLDY    12   9  87 W9        30.34R WCI   0
HUNTINGTON*    CLEAR     17  11  77 W8        30.34R WCI   6
PERU/GRISSOM   PTCLDY    13  10  88 SW10      30.36R WCI  -1
MARION*        PTCLDY    13  10  88 W12       30.36S WCI   0

$$
INZ028>050-020800-
CENTRAL INDIANA

CITY           SKY/WX    TMP DP  RH WIND       PRES   REMARKS
LAFAYETTE      PTCLDY    16  13  88 W10       30.42R WCI   4
KOKOMO*        PTCLDY    18  12  79 W14       30.37R WCI   4
MUNCIE*        PTCLDY    19  15  84 W10       30.36R WCI   7
INDIANAPOLIS   CLOUDY    22  17  81 W10       30.39S WCI  11

$$
MIZ043>046-050>051-056>058-064>065-071>073-077>080-020800-
SOUTHWEST LOWER MICHIGAN

CITY           SKY/WX    TMP DP  RH WIND       PRES   REMARKS
BATTLE CREEK   FLURRIES  23  17  78 W13       30.26R WCI  11
BENTON HARBOR  MOCLDY    23  14  68 NW12      30.34R WCI  12
COLDWATER*     FLURRIES  21  16  81 W13       30.28R WCI   9
HILLSDALE*     FLURRIES  22  17  81 W12G20    30.24R WCI  11
HOLLAND        PTCLDY    25  12  58 NW10      30.30R WCI  15
GRAND RAPIDS   CLOUDY    24  15  68 NW18G24   30.26R WCI  10
KALAMAZOO      LGT SNOW  23  18  81 W8        30.28R WCI  14
STURGIS*       FLURRIES  19  16  86 W8        30.30R WCI   9
THREE RIVERS*  FLURRIES  22  17  79 W10       30.30R WCI  11

$$
OHZ001>008-015>018-024>025-020800-
NORTHWEST OHIO

CITY           SKY/WX    TMP DP  RH WIND       PRES   REMARKS
WAUSEON*       CLOUDY    23  18  80 W13G22    30.28R WCI  11
DEFIANCE       CLOUDY    22  16  78 W7        30.31R WCI  13
FINDLAY        CLOUDY    23  18  81 W14       30.28R WCI  11
TOLEDO EXPRESS CLOUDY    22  17  81 W12       30.28R WCI  10
TOLEDO METCALF CLOUDY    23  17  78 W14       30.29R WCI  11
LIMA           CLOUDY    21  16  81 W17       30.30R WCI   7

$$
AND FOR LAKE MICHIGAN COASTAL AND OPEN LAKE BUOY OBSERVATIONS

STATION/POSITION TEMP    WIND        PRES    VSBY  WAVE
                 AIR SEA DIR/SP/G                  HT/PER
                 (F)     (DEG/KT/KT) (MB)    (MI)  (FT/S)
CALUMET HARBOR    19     260/  6/ 10 1027.6R
MICHIGAN CITY     19     240/ 12/ 14   N/A
SAINT JOSEPH      23     280/ 10/ 15 1028.4R

$$
&&



USA.gov is the U.S. government's official web portal to all federal, state and local government web resources and services.